Temperature
3 2 2 2 2 3 3 2 2 2 3 2 1 1 1 1 1 1 1 2 2 3 4 4 4 5 5 6 7 7 7 8 8 8 8 8 9 9 9 9 9 9 9 9
2 2 2 3 3 3 2 2 2 2 2 2 1 1 1 1 0 1 1 1 1 2 3 3 4 5 5 5 6 6 7 7 7 8 8 8 8 8 8 8 8 8 8 9
2 2 3 3 2 2 2 2 2 2 2 1 1 1 0 0 -0 -0 -0 -0 1 1 2 3 3 4 4 5 5 5 6 6 7 7 7 7 7 7 7 8 8 8 8 8
1 2 2 2 2 2 2 2 2 2 1 1 1 1 0 -1 -1 -1 -1 -1 -0 0 1 2 2 3 3 4 4 5 5 6 6 6 6 7 7 7 7 7 7 7 7 7
1 1 1 2 2 2 1 1 1 1 0 -0 -0 -0 0 -1 -1 -1 -1 -1 -0 0 1 1 2 2 3 3 4 4 5 5 5 5 6 6 6 6 6 6 6 7 7 7
1 1 1 1 1 1 1 1 1 -0 -0 -0 -0 -0 -0 -2 -1 -1 -1 -1 -1 -0 0 1 1 2 2 3 3 4 4 4 4 5 5 5 5 5 6 6 6 6 6 6
0 1 1 1 1 1 0 0 0 -0 -1 -0 -0 -1 -1 -2 -1 -1 -2 -1 -1 -1 -0 0 1 1 2 2 3 3 3 3 4 4 4 4 4 5 5 5 5 5 6 6
-1 -0 -0 -0 -0 -1 -0 -0 -0 0 -0 -1 -1 -1 -2 -2 -2 -2 -2 -2 -1 -1 -1 -0 0 1 1 2 2 2 2 3 3 3 3 4 4 4 4 4 4 4 5 5
-2 -1 -0 0 -0 -0 -1 -1 -1 -2 -2 -2 -2 -3 -3 -2 -3 -2 -2 -2 -2 -2 -1 -1 -0 0 1 1 1 2 2 2 2 2 3 3 3 3 3 4 4 4 4 4
-2 -2 -1 -1 -0 -1 -1 -2 -3 -2 -1 -1 -2 -2 -2 -3 -3 -3 -3 -3 -2 -2 -2 -1 -1 -0 0 1 1 1 1 2 2 2 2 2 2 3 3 3 3 3 3 3
-3 -2 -2 -2 -2 -2 -2 -3 -3 -3 -3 -2 -2 -2 -3 -3 -3 -4 -3 -3 -3 -2 -2 -2 -1 -1 -1 -0 0 1 1 1 1 1 1 2 2 2 2 2 2 3 3 3
-3 -4 -3 -3 -2 -3 -3 -4 -4 -3 -3 -4 -4 -2 -3 -4 -4 -4 -3 -3 -3 -3 -3 -2 -2 -1 -1 -1 -0 -0 0 0 1 1 1 1 1 1 1 2 2 2 2 2
-3 -4 -3 -2 -2 -3 -4 -4 -5 -4 -4 -5 -4 -3 -4 -4 -4 -4 -4 -3 -3 -3 -3 -3 -2 -2 -2 -1 -1 -1 -0 -0 -0 0 0 0 0 1 1 1 1 1 2 2
-3 -5 -3 -2 -2 -4 -4 -4 -5 -5 -5 -5 -5 -4 -4 -5 -5 -4 -4 -4 -3 -3 -3 -3 -3 -2 -2 -2 -2 -1 -1 -1 -1 -1 -1 -0 -0 -0 0 0 0 1 1 1
-4 -5 -5 -4 -4 -4 -5 -5 -5 -6 -5 -5 -4 -5 -5 -5 -5 -5 -4 -4 -4 -4 -4 -4 -3 -3 -3 -2 -2 -2 -2 -2 -1 -1 -1 -1 -1 -1 -1 -0 -0 0 0 0
-5 -5 -5 -5 -4 -4 -4 -5 -5 -6 -6 -6 -6 -5 -5 -5 -5 -5 -5 -5 -5 -4 -4 -4 -4 -4 -4 -3 -3 -2 -2 -2 -2 -2 -2 -2 -1 -1 -1 -1 -1 -1 -1 -0
-6 -6 -5 -4 -5 -4 -4 -6 -6 -7 -7 -7 -6 -6 -6 -6 -6 -6 -5 -5 -5 -5 -5 -5 -5 -4 -4 -4 -3 -3 -3 -3 -2 -2 -2 -2 -2 -2 -2 -2 -2 -1 -1 -1
-6 -6 -6 -5 -5 -3 -4 -6 -6 -6 -7 -8 -7 -7 -7 -6 -6 -5 -5 -5 -5 -5 -5 -5 -5 -5 -4 -4 -4 -4 -3 -3 -3 -3 -3 -3 -3 -3 -2 -2 -2 -2 -2 -2
-7 -6 -6 -6 -6 -5 -5 -6 -7 -7 -7 -7 -8 -8 -7 -7 -6 -6 -5 -5 -6 -6 -5 -5 -5 -5 -5 -4 -4 -4 -4 -4 -4 -4 -3 -3 -3 -3 -3 -3 -3 -3 -3 -3
-7 -7 -7 -7 -5 -4 -5 -7 -7 -7 -6 -6 -7 -8 -8 -8 -8 -7 -5 -6 -6 -6 -6 -6 -5 -5 -5 -5 -5 -5 -5 -4 -4 -4 -4 -4 -4 -4 -3 -3 -3 -3 -3 -3
-8 -8 -7 -7 -6 -6 -7 -7 -7 -6 -5 -6 -6 -7 -7 -8 -7 -6 -6 -6 -6 -6 -6 -6 -6 -6 -5 -5 -5 -5 -5 -5 -5 -5 -4 -4 -4 -4 -4 -4 -4 -4 -4 -4
-8 -8 -8 -8 -7 -6 -7 -8 -7 -6 -6 -6 -6 -6 -6 -6 -6 -6 -6 -6 -6 -6 -6 -6 -6 -6 -6 -6 -6 -6 -5 -5 -5 -5 -5 -5 -5 -5 -4 -4 -4 -4 -4 -4
-9 -8 -8 -8 -6 -6 -7 -6 -6 -6 -6 -6 -6 -6 -7 -7 -7 -7 -7 -7 -7 -7 -7 -7 -7 -6 -6 -6 -6 -6 -6 -6 -6 -6 -5 -5 -5 -5 -5 -5 -5 -5 -5 -5
-9 -9 -9 -9 -8 -7 -7 -6 -6 -6 -6 -6 -6 -7 -7 -7 -7 -7 -7 -7 -7 -7 -7 -7 -7 -7 -6 -6 -6 -6 -6 -6 -6 -6 -6 -6 -6 -5 -5 -6 -6 -5 -5 -5
-9 -10 -10 -9 -9 -8 -6 -6 -5 -6 -6 -6 -6 -7 -7 -7 -7 -7 -7 -7 -7 -7 -7 -7 -7 -7 -7 -7 -7 -7 -7 -7 -7 -7 -7 -7 -6 -6 -6 -6 -6 -6 -6 -6
-10 -10 -9 -8 -7 -8 -6 -5 -6 -6 -6 -7 -7 -7 -7 -7 -8 -8 -8 -8 -8 -8 -7 -7 -7 -7 -7 -7 -7 -7 -7 -7 -7 -7 -7 -7 -7 -7 -7 -7 -6 -6 -6 -6
Wind_Speed
4 5 2 2 2 2 2 3 4 4 2 1 3 4 5 4 2 3 3 3 2 3 3 4 3 3 3 3 3 3 3 3 2 2 2 2 2 2 2 3 4 4 5 6
5 3 3 2 1 1 1 1 3 3 2 1 2 5 5 3 2 2 2 3 3 3 4 5 4 4 3 2 3 3 2 2 2 1 1 1 1 1 2 3 3 4 4 5
2 2 3 2 2 2 2 3 3 3 3 1 2 5 4 3 3 4 5 4 4 3 4 4 4 4 3 3 2 2 2 2 2 2 3 3 3 2 2 2 2 3 4 4
1 3 3 3 3 1 4 3 3 3 1 3 0 4 4 3 4 4 5 5 4 4 4 4 3 3 3 3 2 3 3 3 3 2 3 4 2 1 1 1 1 2 3 4
3 3 3 3 4 2 3 3 2 2 2 2 1 2 5 2 3 5 5 4 3 4 4 3 3 3 3 2 2 2 3 3 3 3 3 3 2 1 1 2 2 2 2 3
2 2 1 2 3 1 2 2 2 2 2 2 3 3 5 3 4 5 4 4 4 4 4 3 3 2 3 3 3 3 3 3 3 3 3 3 2 2 2 2 2 1 1 2
6 3 3 2 3 3 4 3 3 3 2 4 1 2 5 4 3 3 4 4 4 3 3 4 4 3 3 3 3 3 3 3 3 3 3 2 1 1 1 1 1 1 1 1
4 5 4 3 1 2 1 2 3 2 3 4 2 4 5 3 3 2 2 3 3 4 4 3 4 3 3 3 2 2 2 2 3 2 2 1 1 1 0 1 0 0 0 0
1 5 4 4 3 1 1 1 1 2 1 2 4 5 5 3 5 4 4 4 4 4 5 4 4 3 2 3 2 1 1 2 1 1 1 1 1 1 1 0 0 0 0 0
2 4 5 4 3 4 2 2 3 2 0 3 5 4 4 5 5 5 5 5 5 4 5 4 4 4 3 2 2 2 1 0 1 0 1 1 1 0 0 0 0 1 1 1
1 2 5 4 2 2 3 2 2 1 2 2 4 5 2 3 3 4 5 4 4 4 4 4 4 3 4 3 3 3 2 1 1 1 0 1 1 1 0 0 0 0 1 1
1 2 3 4 2 1 2 1 2 2 2 2 2 6 2 2 3 3 4 4 4 3 4 4 4 4 4 4 3 3 3 3 2 1 0 1 0 1 0 0 1 1 1 1
2 3 3 5 3 3 2 2 0 1 1 2 3 6 3 5 3 3 3 5 5 4 4 4 4 3 4 4 3 3 3 3 3 2 1 1 1 1 1 1 1 1 1 1
3 2 3 5 5 2 3 3 1 2 2 3 6 9 8 7 6 6 5 5 5 4 4 4 4 4 4 4 4 4 4 3 3 3 2 2 1 1 1 1 1 2 2 1
3 1 3 5 5 2 3 4 1 3 5 6 7 7 10 8 6 5 5 5 4 5 5 5 5 4 4 5 4 4 4 4 3 3 3 3 2 2 1 1 1 1 1 2
2 1 1 3 2 2 4 6 4 5 5 6 8 10 7 6 4 4 4 4 5 5 6 6 5 5 5 5 5 5 4 4 3 2 3 3 3 2 2 2 2 2 1 1
1 1 1 3 4 3 5 5 4 4 4 4 6 7 5 5 6 5 5 5 5 5 6 6 6 5 5 5 5 5 4 4 3 3 3 3 3 3 3 2 2 2 2 2
2 1 1 2 4 3 5 1 2 4 5 4 5 5 5 6 6 5 4 4 5 6 6 6 6 6 5 5 5 5 4 3 3 3 3 3 3 3 3 3 3 3 2 2
3 3 1 0 2 6 5 1 1 2 6 3 5 7 7 6 5 4 4 3 4 6 6 6 5 5 5 5 4 4 4 3 3 3 3 4 3 3 3 3 3 3 2 3
3 2 3 2 2 5 5 2 1 1 5 3 3 5 6 4 3 5 5 5 5 6 5 5 5 4 4 5 4 3 3 3 4 4 4 4 3 3 3 3 3 3 3 3
1 1 2 3 4 7 4 2 2 2 5 4 3 4 3 3 5 6 6 6 5 5 5 5 4 4 4 4 3 3 3 4 5 4 4 3 3 3 3 3 3 2 2 2
5 4 4 3 3 7 2 4 4 6 3 3 3 3 4 5 6 6 6 6 6 5 5 5 5 5 5 3 2 3 4 4 4 4 3 3 3 3 3 2 3 2 2 2
6 7 5 8 7 3 4 5 4 2 3 4 3 4 4 5 6 6 6 6 6 6 5 5 4 5 4 3 2 3 5 4 3 3 3 4 4 3 2 2 2 2 2 2
4 2 3 5 7 5 6 5 4 4 5 5 5 4 4 5 6 6 7 6 6 6 5 5 4 5 5 5 4 4 4 3 2 3 3 3 3 3 2 2 1 2 2 2
5 5 4 6 6 5 5 6 6 5 5 5 5 5 5 5 6 6 6 6 6 6 5 5 4 4 5 5 5 5 4 3 3 3 3 3 2 2 2 2 2 2 2 3
5 7 6 7 6 5 5 4 4 4 5 5 5 5 5 4 6 6 6 6 5 6 5 5 5 5 5 5 5 4 4 2 2 3 3 2 2 2 2 2 3 4 4 5
Wind_Direction
22 54 28 260 207 212 193 199 246 264 277 239 237 270 291 310 346 342 336 338 336 322 333 347 349 8 29 31 51 54 50 42 63 92 101 114 90 68 65 68 88 108 121 125
41 5 294 283 329 326 229 222 262 295 333 266 262 278 293 317 321 323 327 329 327 336 348 351 6 23 26 28 48 49 47 50 47 72 92 126 119 86 63 56 65 85 100 117
125 294 327 24 10 336 285 229 246 269 324 354 314 292 291 322 354 360 4 358 353 349 336 333 6 14 14 19 30 44 36 41 41 51 83 75 75 72 63 57 50 48 94 104
349 323 359 12 337 297 276 270 265 265 293 290 312 284 281 296 328 342 342 347 350 343 338 338 6 4 357 0 18 38 37 36 39 60 96 100 101 99 79 106 75 53 85 104
321 343 1 346 320 303 261 302 277 248 193 285 307 246 289 337 305 313 317 328 337 335 334 339 351 347 346 4 30 44 47 40 36 44 74 91 71 55 60 71 82 76 68 90
306 315 11 297 319 312 313 356 24 50 91 269 243 201 282 271 268 287 299 315 327 334 336 347 350 358 4 16 26 50 59 46 46 54 63 70 68 56 72 62 72 65 60 59
342 342 351 359 354 5 31 62 21 360 348 260 222 206 260 267 265 258 279 296 312 327 337 350 349 352 360 14 26 38 58 46 44 51 64 74 62 98 119 98 96 50 49 26
352 318 336 358 358 296 308 137 158 223 256 288 301 242 267 299 322 321 312 319 333 335 339 345 337 341 359 5 22 34 55 50 49 47 36 70 67 62 38 44 73 228 234 266
344 288 325 347 344 78 59 103 161 147 292 290 281 292 305 346 347 346 338 342 335 331 338 338 339 343 358 4 1 25 40 34 40 32 21 42 69 49 28 7 50 266 286 313
184 276 305 324 13 25 73 128 86 109 347 284 296 281 277 309 314 314 315 315 315 321 326 332 340 342 348 360 352 2 8 332 350 70 27 360 39 49 124 102 24 347 327 330
146 224 311 356 18 324 28 53 78 123 149 187 281 278 251 246 277 288 294 302 310 317 321 325 336 345 360 14 10 354 345 351 0 22 34 11 15 14 72 138 244 269 310 321
96 121 286 273 263 50 118 142 143 160 250 202 229 275 315 277 291 297 302 310 314 318 323 329 343 356 2 0 1 358 355 351 340 331 328 320 349 43 30 232 240 251 267 286
102 94 344 340 349 13 13 354 318 169 139 189 226 273 336 353 343 332 317 320 326 331 336 345 352 352 346 342 345 348 351 348 344 348 342 332 342 4 333 279 246 229 238 251
107 129 185 226 256 273 296 325 23 131 195 241 242 264 299 320 319 321 320 322 327 331 336 346 346 340 337 336 338 340 339 343 345 348 341 322 295 275 265 296 270 240 227 222
99 209 243 253 262 252 274 300 303 210 221 230 260 266 284 294 289 293 302 319 332 335 339 338 333 330 332 336 335 332 326 330 333 338 332 319 309 306 295 296 294 259 239 242
74 223 292 284 258 265 292 299 275 253 251 252 274 280 287 302 310 312 310 314 317 321 327 328 326 326 324 322 320 319 320 324 328 326 317 316 319 320 307 297 299 295 281 262
80 122 339 290 314 328 294 272 233 239 238 218 243 267 310 321 315 304 301 310 310 314 317 318 315 310 308 306 310 311 313 319 326 324 320 318 319 319 307 304 300 289 281 272
156 147 189 302 7 265 252 192 212 241 261 240 257 287 300 290 295 301 294 292 303 309 308 309 311 310 309 310 314 314 316 321 325 323 319 319 323 320 317 313 296 289 282 270
157 153 143 134 285 277 288 247 169 228 283 249 265 290 302 315 323 312 302 300 295 301 301 301 301 301 305 308 312 319 323 326 327 323 318 316 313 304 308 307 298 292 287 278
75 103 134 151 225 256 265 272 257 147 289 282 267 281 298 342 333 297 316 320 312 311 309 307 311 314 310 309 317 319 320 326 321 314 308 307 304 296 291 291 291 288 282 280
83 90 184 207 235 264 259 265 108 149 274 300 271 271 276 245 244 277 305 308 306 309 312 319 322 317 304 306 315 313 319 311 305 308 311 313 310 301 289 287 284 277 284 291
183 181 200 181 220 260 200 140 185 233 282 286 276 267 262 267 279 292 301 308 315 321 324 325 324 314 308 308 314 311 305 304 311 314 315 316 316 310 307 300 299 295 283 284
202 196 196 200 221 255 186 208 232 234 263 269 269 279 274 281 288 299 304 305 310 311 313 316 313 311 314 317 310 295 302 312 315 318 315 315 319 318 309 299 295 295 278 269
239 189 207 254 262 257 250 252 260 253 256 270 274 279 277 279 287 297 303 307 310 312 312 314 316 317 317 318 313 294 298 304 302 303 304 307 313 317 321 314 294 276 270 269
222 178 214 256 275 297 268 244 251 264 270 279 283 277 269 274 286 290 296 301 303 308 313 314 313 307 305 312 309 309 308 301 297 295 294 301 309 307 313 315 298 284 275 270
195 185 192 233 234 218 258 267 256 257 269 270 279 290 287 270 278 289 292 295 300 304 309 313 311 306 305 310 309 311 310 298 281 292 299 299 305 307 312 318 327 328 315 313
Height
1504 1507 1510 1509 1508 1508 1509 1511 1512 1510 1508 1510 1510 1509 1507 1505 1505 1504 1502 1501 1501 1500 1500 1501 1501 1501 1500 1502 1503 1503 1505 1507 1509 1511 1513 1515 1517 1519 1521 1523 1526 1527 1529 1531
1510 1512 1510 1508 1508 1509 1509 1511 1512 1510 1509 1510 1510 1509 1506 1504 1504 1504 1502 1501 1500 1499 1499 1499 1499 1499 1499 1500 1501 1502 1504 1505 1507 1509 1511 1513 1515 1517 1520 1522 1524 1526 1527 1529
1513 1513 1509 1509 1509 1509 1509 1511 1511 1511 1509 1509 1510 1507 1506 1504 1504 1503 1501 1500 1499 1499 1498 1498 1497 1497 1497 1497 1499 1500 1502 1504 1506 1508 1510 1512 1514 1516 1518 1520 1522 1524 1525 1527
1514 1512 1511 1510 1510 1510 1510 1508 1508 1508 1512 1514 1513 1512 1505 1505 1503 1502 1501 1500 1498 1498 1498 1497 1496 1497 1497 1497 1499 1500 1501 1502 1504 1507 1508 1509 1511 1512 1515 1517 1519 1522 1524 1525
1516 1514 1513 1512 1511 1510 1510 1508 1508 1508 1512 1516 1516 1517 1507 1506 1504 1503 1502 1500 1499 1498 1496 1496 1496 1496 1496 1497 1498 1499 1500 1501 1503 1504 1506 1508 1510 1512 1513 1515 1518 1519 1521 1523
1517 1515 1515 1514 1511 1510 1510 1510 1510 1512 1515 1518 1516 1517 1510 1508 1504 1502 1501 1499 1498 1497 1496 1495 1496 1496 1496 1496 1496 1498 1499 1500 1502 1503 1505 1506 1509 1510 1512 1513 1515 1517 1519 1520
1520 1516 1515 1514 1513 1511 1512 1514 1518 1519 1521 1517 1514 1514 1511 1505 1502 1501 1500 1498 1497 1497 1496 1495 1495 1495 1495 1495 1495 1496 1497 1499 1500 1502 1503 1505 1507 1508 1509 1510 1512 1514 1515 1517
1529 1523 1518 1516 1517 1517 1516 1517 1522 1522 1522 1519 1515 1514 1509 1504 1502 1501 1500 1499 1498 1497 1496 1495 1495 1494 1494 1494 1495 1496 1496 1497 1498 1500 1502 1503 1505 1506 1507 1508 1510 1511 1513 1514
1533 1527 1520 1518 1517 1517 1517 1520 1521 1527 1529 1528 1519 1517 1508 1503 1501 1500 1499 1498 1497 1497 1496 1495 1494 1494 1494 1494 1495 1495 1496 1497 1498 1499 1500 1501 1502 1503 1504 1506 1508 1509 1510 1511
1533 1532 1524 1521 1518 1519 1520 1522 1526 1527 1526 1524 1519 1518 1513 1507 1504 1501 1500 1498 1497 1497 1496 1495 1494 1493 1493 1494 1494 1495 1495 1495 1496 1497 1498 1499 1500 1501 1502 1504 1505 1506 1508 1509
1532 1534 1529 1525 1525 1525 1524 1526 1526 1528 1528 1528 1525 1515 1508 1507 1504 1503 1501 1499 1498 1497 1496 1494 1494 1493 1493 1493 1493 1494 1494 1494 1495 1496 1497 1497 1498 1499 1500 1501 1502 1504 1505 1506
1533 1536 1536 1529 1526 1526 1527 1529 1529 1528 1529 1533 1531 1520 1507 1505 1504 1503 1501 1500 1498 1497 1496 1494 1493 1493 1492 1492 1492 1492 1493 1493 1493 1494 1494 1495 1496 1496 1497 1498 1499 1501 1502 1503
1533 1537 1536 1527 1530 1530 1529 1530 1530 1529 1530 1533 1530 1518 1508 1506 1504 1503 1502 1500 1498 1497 1496 1494 1493 1492 1492 1492 1492 1491 1491 1491 1491 1492 1492 1492 1493 1493 1494 1495 1496 1497 1498 1499
1531 1538 1537 1533 1530 1531 1532 1530 1530 1530 1531 1531 1526 1516 1510 1508 1506 1503 1501 1500 1498 1497 1496 1494 1493 1492 1492 1491 1490 1490 1490 1490 1490 1490 1490 1490 1490 1491 1491 1492 1493 1494 1495 1496
1532 1537 1537 1533 1530 1531 1531 1530 1530 1531 1529 1527 1519 1517 1510 1508 1506 1504 1502 1500 1498 1496 1495 1494 1493 1492 1491 1490 1490 1489 1489 1488 1488 1488 1487 1488 1488 1488 1489 1489 1490 1490 1491 1492
1534 1537 1536 1532 1529 1529 1528 1525 1526 1527 1526 1524 1520 1516 1509 1507 1505 1503 1501 1499 1497 1496 1495 1493 1492 1491 1490 1489 1488 1488 1487 1486 1486 1486 1485 1485 1485 1485 1486 1486 1486 1487 1487 1488
1536 1537 1536 1532 1530 1527 1526 1524 1525 1525 1523 1522 1520 1515 1509 1507 1504 1502 1500 1499 1497 1495 1494 1493 1491 1490 1488 1487 1486 1485 1485 1484 1484 1483 1483 1483 1483 1483 1483 1483 1483 1483 1483 1484
1536 1537 1538 1536 1532 1528 1522 1521 1521 1521 1519 1518 1514 1511 1509 1507 1504 1502 1500 1498 1496 1495 1493 1491 1489 1488 1487 1485 1484 1484 1483 1482 1481 1481 1481 1481 1480 1480 1480 1480 1480 1480 1480 1481
1533 1536 1538 1539 1538 1529 1521 1520 1521 1522 1517 1513 1512 1509 1507 1504 1502 1500 1499 1498 1496 1494 1491 1489 1488 1486 1484 1483 1482 1481 1480 1480 1479 1479 1478 1478 1478 1478 1477 1477 1477 1477 1477 1477
1534 1535 1539 1540 1535 1528 1519 1519 1518 1520 1516 1509 1509 1507 1506 1505 1505 1501 1498 1496 1494 1492 1490 1488 1486 1484 1482 1481 1480 1479 1478 1477 1476 1476 1476 1476 1476 1475 1475 1475 1474 1475 1475 1474
1538 1539 1540 1538 1537 1527 1519 1518 1518 1522 1514 1508 1507 1505 1505 1504 1503 1500 1496 1494 1493 1490 1488 1486 1484 1482 1480 1479 1478 1476 1475 1475 1474 1474 1474 1474 1473 1473 1472 1472 1472 1472 1471 1471
1536 1537 1538 1538 1537 1526 1517 1516 1518 1514 1509 1507 1505 1504 1503 1501 1499 1497 1495 1492 1490 1487 1485 1483 1481 1479 1478 1477 1476 1474 1473 1473 1472 1472 1471 1471 1470 1470 1469 1469 1469 1469 1468 1468
1531 1528 1528 1528 1521 1514 1512 1510 1509 1509 1507 1505 1504 1503 1501 1499 1497 1494 1492 1490 1488 1486 1484 1481 1479 1477 1476 1475 1474 1472 1471 1471 1470 1469 1468 1468 1467 1467 1466 1466 1466 1465 1465 1465
1524 1523 1524 1522 1513 1510 1509 1508 1507 1506 1505 1503 1502 1501 1499 1497 1495 1492 1490 1488 1486 1483 1481 1479 1477 1475 1473 1473 1472 1471 1470 1469 1468 1467 1466 1465 1465 1464 1463 1463 1463 1463 1462 1462
1518 1520 1520 1517 1510 1507 1505 1505 1504 1503 1502 1501 1500 1498 1496 1494 1492 1490 1488 1486 1484 1481 1479 1477 1475 1473 1472 1471 1470 1469 1468 1466 1465 1464 1464 1463 1462 1462 1461 1460 1461 1460 1460 1460
1512 1513 1514 1509 1505 1505 1503 1502 1502 1501 1500 1499 1497 1495 1494 1492 1490 1488 1486 1484 1482 1479 1477 1475 1473 1471 1470 1468 1467 1466 1465 1464 1463 1462 1461 1461 1460 1459 1459 1458 1458 1457 1458 1457